Location: Krasnoyarskiy Pitomnik
(51.1333°N, 71.6167°E)
Time: 18:52:01
(UTC+00:00)

Vanguard 2 - Pass Details

Date: 22 April 2024
Orbit: 553 x 2914 km, 32.9° (Epoch: 22 May)

Event Time Altitude Azimuth Distance (km) Brightness Sun altitude
Exits shadow 19:50:57 28° 160° (SSE) 4,092 10.7 -25.7°
Maximum altitude 19:52:37 28° 151° (SSE) 4,132 10.8 -25.7°
Drops below altitude 10° 20:05:59 10° 102° (ESE) 5,741 12.0 -25.2°
Sets 20:11:20 0° 92° (E) 6,707 12.5 -25.0°
